Alicante, Spain

4:23 AM CEST on May 29, 2017 (GMT +0200)
Alicante

Weather History for LEAL - March, 2012

Change the Weather History Date:

Thursday, March 22, 2012

  Actual Average Record
Temperature  
Mean Temperature 54 °F -  
Max Temperature 65 °F 66 °F 84 °F (2001)
Min Temperature 44 °F 49 °F 37 °F (2007)
Degree Days  
Heating Degree Days 10    
Growing Degree Days 4 (Base 50)    
Moisture  
Dew Point 43 °F    
Average Humidity 68    
Maximum Humidity 93    
Minimum Humidity 29    
Precipitation  
Precipitation 0.00 in - - ()
Sea Level Pressure  
Sea Level Pressure 30.22 in    
Wind  
Wind Speed 3 mph ()    
Max Wind Speed 12 mph    
Max Gust Speed -    
Visibility 7.6 miles    
Events      
Averages and records for this station are not official NWS values.
T = Trace of Precipitation, MM = Missing Value Source: Averaged Metar Reports

Daily Weather History Graph

Daily Weather History Graph

Search for Another Location

Airport or City:

Trip Planner

Search our weather history database for the weather conditions in past years. The results will help you decide how hot, cold, wet, or windy it might be!

Date:

Astronomy

Mar. 22, 2012 Rise Set
Actual Time 7:02 AM CET 7:16 PM CET
Civil Twilight 6:35 AM CET 7:42 PM CET
Nautical Twilight 6:04 AM CET 8:13 PM CET
Astronomical Twilight 5:33 AM CET 8:45 PM CET
Moon 6:34 AM CET (3/22) 7:25 PM CET (3/22)
Length of Visible Light 13h 06m
Length of Day
12h 14m
Waning Crescent, 0% of the Moon is Illuminated
Mar 22
Waning Crescent
Mar 22
New
Mar 30
First Quarter
Apr 6
Full
Apr 13
Last Quarter

Hourly Weather History & Observations

Time (CET) Temp. Windchill Dew Point Humidity Pressure Visibility Wind Dir Wind Speed Gust Speed Precip Events Conditions
12:00 AM 48.2 °F - 44.6 °F 87% 30.21 in 6.2 mi Variable 2.3 mph - N/A   Partly Cloudy
12:30 AM 46.4 °F - 42.8 °F 87% 30.21 in 6.2 mi Variable 2.3 mph - N/A   Partly Cloudy
1:00 AM 48 °F - 42 °F 72% 30.22 in 9 mi Calm Calm - -  
1:00 AM 48.2 °F - 44.6 °F 87% 30.21 in 6.2 mi Variable 1.2 mph - N/A   Partly Cloudy
1:30 AM 48.2 °F - 42.8 °F 82% 30.21 in 6.2 mi NW 3.5 mph - N/A   Partly Cloudy
2:00 AM 48.2 °F - 42.8 °F 82% 30.21 in 6.2 mi Calm Calm - N/A   Partly Cloudy
2:30 AM 46.4 °F - 42.8 °F 87% 30.18 in 6.2 mi Calm Calm - N/A   Partly Cloudy
3:00 AM 46.4 °F 42.9 °F 42.8 °F 87% 30.18 in 6.2 mi WSW 6.9 mph - N/A   Partly Cloudy
3:30 AM 46.4 °F 45.2 °F 42.8 °F 87% 30.18 in 6.2 mi West 3.5 mph - N/A   Partly Cloudy
4:00 AM 46.4 °F 44.3 °F 41.0 °F 81% 30.18 in - West 4.6 mph - N/A   Clear
4:30 AM 46.4 °F 45.2 °F 41.0 °F 81% 30.18 in - West 3.5 mph - N/A   Clear
5:00 AM 46.4 °F 43.5 °F 41.0 °F 81% 30.18 in - West 5.8 mph - N/A   Clear
5:30 AM 46.4 °F - 41.0 °F 81% 30.18 in - Variable 1.2 mph - N/A   Clear
6:00 AM 46.4 °F - 39.2 °F 76% 30.18 in - Variable 2.3 mph - N/A   Clear
6:30 AM 46.4 °F - 39.2 °F 76% 30.21 in - Calm Calm - N/A   Clear
7:00 AM 46 °F - 36 °F 58% 30.22 in 19 mi WNW 3.5 mph - -  
7:00 AM 46.4 °F - 37.4 °F 71% 30.21 in - Variable 1.2 mph - N/A   Clear
7:30 AM 48.2 °F - 37.4 °F 66% 30.21 in - NW 4.6 mph - N/A   Clear
8:00 AM 46.4 °F - 41.0 °F 81% 30.24 in 6.2 mi Calm Calm - N/A   Partly Cloudy
8:30 AM 48.2 °F - 41.0 °F 76% 30.24 in 6.2 mi Calm Calm - N/A   Partly Cloudy
9:00 AM 53.6 °F - 41.0 °F 62% 30.24 in 6.2 mi Calm Calm - N/A   Partly Cloudy
9:30 AM 55.4 °F - 42.8 °F 63% 30.24 in 6.2 mi Calm Calm - N/A   Partly Cloudy
10:00 AM 57.2 °F - 42.8 °F 59% 30.24 in - Variable 1.2 mph - N/A   Clear
10:30 AM 59.0 °F - 37.4 °F 45% 30.27 in - Calm Calm - N/A   Clear
11:00 AM 59.0 °F - 42.8 °F 55% 30.24 in - SSW 4.6 mph - N/A   Clear
11:30 AM 60.8 °F - 42.8 °F 52% 30.24 in - SSW 5.8 mph - N/A   Clear
12:00 PM 62.6 °F - 39.2 °F 42% 30.24 in - SSW 5.8 mph - N/A   Clear
12:30 PM 64.4 °F - 41.0 °F 42% 30.24 in - South 4.6 mph - N/A   Clear
1:00 PM 63 °F - 39 °F 29% 30.23 in 19 mi South 10.4 mph - -   Scattered Clouds
1:00 PM 62.6 °F - 41.0 °F 45% 30.21 in 6.2 mi South 9.2 mph - N/A   Partly Cloudy
1:30 PM 64.4 °F - 41.0 °F 42% 30.21 in 6.2 mi South 8.1 mph - N/A   Partly Cloudy
2:00 PM 64.4 °F - 41.0 °F 42% 30.21 in 6.2 mi South 8.1 mph - N/A   Partly Cloudy
2:30 PM 64.4 °F - 39.2 °F 40% 30.18 in 6.2 mi South 9.2 mph - N/A   Partly Cloudy
3:00 PM 64.4 °F - 39.2 °F 40% 30.18 in 6.2 mi South 9.2 mph - N/A   Partly Cloudy
3:30 PM 64.4 °F - 42.8 °F 45% 30.18 in - South 10.4 mph - N/A   Clear
4:00 PM 62.6 °F - 44.6 °F 52% 30.18 in - South 11.5 mph - N/A   Clear
4:30 PM 62.6 °F - 48.2 °F 59% 30.18 in - SSE 10.4 mph - N/A   Clear
5:00 PM 62.6 °F - 46.4 °F 55% 30.18 in - SSE 5.8 mph - N/A   Clear
5:30 PM 60.8 °F - 48.2 °F 63% 30.18 in - South 5.8 mph - N/A   Clear
6:00 PM 60.8 °F - 48.2 °F 63% 30.21 in - Variable 1.2 mph - N/A   Clear
6:30 PM 59.0 °F - 46.4 °F 63% 30.21 in - Variable 1.2 mph - N/A   Clear
7:00 PM 59 °F - 46 °F 53% 30.23 in 22 mi Calm Calm - -   Clear
7:00 PM 59.0 °F - 48.2 °F 67% 30.21 in - Calm Calm - N/A   Clear
7:30 PM 55.4 °F - 50.0 °F 82% 30.21 in - Calm Calm - N/A   Clear
8:00 PM 55.4 °F - 50.0 °F 82% 30.24 in - Calm Calm - N/A   Clear
8:30 PM 55.4 °F - 50.0 °F 82% 30.24 in - Calm Calm - N/A   Clear
9:00 PM 53.6 °F - 50.0 °F 88% 30.27 in - Calm Calm - N/A   Clear
9:30 PM 53.6 °F - 50.0 °F 88% 30.27 in - Calm Calm - N/A   Clear
10:00 PM 51.8 °F - 48.2 °F 88% 30.27 in - Calm Calm - N/A   Clear
10:30 PM 51.8 °F - 48.2 °F 88% 30.27 in - Calm Calm - N/A   Clear
11:00 PM 48.2 °F - 46.4 °F 93% 30.27 in - Calm Calm - N/A   Clear
11:30 PM 48.2 °F - 46.4 °F 93% 30.27 in - Calm Calm - N/A   Clear